#timestamp,LO_Frequency,Hit 
1501243255.3,286046991.5,P
1501243275.2,286046991.4,P
1501243295.0,286046991.1,P
1501243295.9,286046991.1,P
1501243315.8,286046995.4,P
1501243335.6,286046998.2,N
1501243355.4,286047000.0,N
1501243375.3,286046999.2,N
1501243395.1,286047000.3,N
1501243415.9,286046997.6,N
1501243435.7,286046999.3,N
1501243455.5,286046999.6,N
1501243475.4,286046996.8,N
1501243495.2,286046997.5,N
1501243515.0,286047000.1,N
1501243515.9,286047000.1,N
1501243535.8,286047007.2,N
1501243555.6,286047009.5,N
1501243575.5,286047009.8,N
1501243595.3,286047007.5,N
1501243615.1,286047006.3,N
1501243635.9,286047012.4,N
1501243655.7,286047007.9,N
1501243675.5,286047011.7,N
1501243695.4,286047010.7,N
1501243715.2,286047012.3,N
1501243735.1,286047017.5,N
1501243736.0,286047017.5,N
1501243755.8,286047025.3,P
1501243775.6,286047020.2,N
1501243795.5,286047018.6,N
1501243815.3,286047015.2,N
1501243835.2,286047009.4,N
1501243855.9,286047009.2,N
1501243875.7,286047004.1,N
1501243895.6,286047000.1,N
1501243915.4,286047005.6,N
1501243935.2,286047008.4,N
1501243955.1,286047012.1,N
1501243956.0,286047012.1,N
1501243975.8,286047009.0,N
1501243995.7,286047003.8,N
1501244015.5,286047000.5,N
1501244035.3,286047000.6,N
1501244055.2,286046998.7,N
1501244075.0,286047001.0,N
1501244075.9,286047001.0,N
1501244095.7,286046999.7,N
1501244115.6,286047005.9,N
1501244135.4,286047001.5,N
1501244155.3,286047005.2,N
1501244175.1,286047005.9,N
1501244176.0,286047005.9,N
1501244195.8,286047002.9,N
1501244215.7,286047003.9,N
1501244235.5,286047003.3,N
1501244255.3,286047003.0,N
1501244275.2,286047001.3,N
1501244295.0,286047006.0,N
1501244295.9,286047006.0,N
1501244315.8,286047000.7,N
1501244335.6,286046996.9,N
1501244355.4,286047003.6,N
1501244375.3,286047000.1,N
1501244395.1,286046998.9,N
1501244415.9,286046997.9,N
1501244435.7,286046994.3,N
1501244455.5,286047000.8,N
1501244475.4,286046995.5,N
1501244495.2,286046993.0,N
1501244515.0,286046993.4,N
1501244515.9,286046993.4,N
1501244535.8,286046994.5,N
1501244555.6,286046988.5,N
1501244575.5,286046985.3,P
1501244595.3,286046987.5,N
1501244615.1,286046985.6,N
1501244635.9,286046987.9,N
1501244655.7,286046995.8,N
1501244675.6,286046995.2,N
1501244695.4,286046998.8,N
1501244715.2,286046999.4,N
1501244735.1,286046998.8,N
1501244736.0,286046998.8,N
1501244755.8,286046996.7,N
1501244775.6,286046997.2,N
1501244795.5,286047006.2,N
1501244815.3,286047012.2,N
1501244835.2,286047002.5,N
1501244855.9,286046999.4,N
1501244875.7,286046995.9,N
1501244895.6,286046992.8,N
1501244915.4,286046988.8,N
1501244935.2,286046986.9,N
1501244955.1,286046985.4,N
1501244956.0,286046985.4,N
1501244975.8,286046985.0,N
1501244995.7,286046982.8,N
1501245015.5,286046989.1,N
1501245035.3,286046992.4,N
1501245055.2,286046995.9,N
1501245075.0,286046993.4,N
1501245075.9,286046993.4,N
1501245095.8,286046994.7,N
1501245115.6,286046993.6,N
1501245135.4,286046994.3,N
1501245155.3,286046989.4,N
1501245175.1,286046993.0,N
1501245195.8,286046988.9,N
1501245215.7,286046992.8,N
1501245235.5,286046992.1,N
1501245255.4,286046990.3,N
1501245275.2,286046987.5,N
1501245295.0,286046988.0,N
1501245295.9,286046988.0,N
1501245315.8,286046986.2,N
1501245335.6,286046983.9,N
1501245355.4,286046983.6,N
1501245375.3,286046982.3,P
1501245395.1,286046993.4,N
1501245415.9,286046995.7,N
1501245435.7,286046994.9,N
1501245455.5,286046991.8,N
1501245475.4,286046989.2,N
1501245495.2,286046985.7,P
1501245515.1,286046999.2,N
1501245516.0,286046999.2,N
1501245535.8,286046999.2,N
1501245555.6,286047001.2,N
1501245575.5,286047002.1,N
1501245595.3,286047000.1,N
1501245615.1,286047005.3,N
1501245635.9,286047004.3,N
1501245655.7,286047001.4,N
1501245675.6,286047003.8,N
1501245695.4,286046999.7,N
1501245715.2,286046999.6,N
1501245735.1,286047002.7,N
1501245736.0,286047002.7,N
1501245755.8,286047009.4,N
1501245775.6,286047006.4,N
1501245795.5,286047007.2,N
1501245815.3,286047004.1,N
1501245835.2,286046998.7,N
1501245855.9,286046996.3,N
1501245875.7,286046991.7,N
1501245895.6,286046990.4,N
1501245915.4,286046989.1,N
1501245935.3,286046988.7,N
1501245955.1,286046992.2,N
1501245956.0,28601501245975.0,286046997.6,P
1501245975.9,286046997.6,N
1501245995.8,286046996.7,P
1501246015.6,286046993.9,P
1501246035.5,286046993.6,P
1501246055.3,286046991.7,P
1501246075.1,286046991.4,P
1501246095.9,286046993.8,P
1501246115.7,286046997.3,N
1501246135.5,286046999.6,N
1501246155.4,286047003.4,N
1501246175.2,286046999.9,N
1501246195.1,286047005.6,N
1501246196.0,286047005.6,N
1501246215.8,286047009.3,N
1501246235.6,286047011.4,N
1501246255.5,286047008.6,N
1501246275.3,286047010.8,N
1501246295.1,286047006.5,N
1501246315.9,286047004.8,N
1501246335.7,286047007.6,N
1501246355.6,286047005.1,N
1501246375.4,286047003.0,N
1501246395.2,286047004.5,N
1501246415.1,286047003.5,N
1501246416.0,286047003.5,N
1501246435.8,286047004.4,N
1501246455.7,286047000.6,N
1501246475.5,286046998.4,N
1501246495.3,286047001.0,N
1501246515.2,286047005.8,N
1501246535.0,286047003.0,N
1501246535.9,286047003.0,N
1501246555.7,286047005.1,N
1501246575.6,286047005.5,N
1501246595.4,286047003.6,N
1501246615.3,286047000.5,N
1501246635.1,286046998.1,N
1501246636.0,286046998.1,N
1501246655.8,286047002.6,N
1501246675.7,286047000.4,N
1501246695.5,286046999.8,N
1501246715.4,286047000.9,N
1501246735.2,286046999.1,N
1501246755.0,286046999.3,N
1501246755.9,286046999.3,N
1501246775.8,286047000.8,N
1501246795.6,286046999.6,N
